Time,TemperatureF,DewpointF,PressureIn,WindDirection,WindDirectionDegrees,WindSpeedMPH,WindSpeedGustMPH,Humidity,HourlyPrecipIn,Conditions,Clouds,dailyrainin,SolarRadiationWatts/m^2,SoftwareType,DateUTC
2013-03-23 00:03:00,48.2,45.1,29.95,SW,232,0.0,-999.0,89,0.00,,,0.00,0.00,,2013-03-23 07:03:00,
2013-03-23 00:08:00,48.2,45.2,29.95,WSW,240,3.0,-999.0,90,0.00,,,0.00,0.00,,2013-03-23 07:08:00,
2013-03-23 00:13:00,48.0,45.0,29.96,SW,222,1.5,-999.0,90,0.00,,,0.00,0.00,,2013-03-23 07:13:00,
2013-03-23 00:18:00,47.8,44.6,29.95,SSW,193,0.0,-999.0,89,0.00,,,0.00,0.98,,2013-03-23 07:18:00,
2013-03-23 00:23:00,48.1,45.3,29.94,WSW,256,2.2,-999.0,90,0.00,,,0.00,0.00,,2013-03-23 07:23:00,
2013-03-23 00:28:00,48.2,45.4,29.95,SW,236,1.8,-999.0,90,0.00,,,0.00,0.00,,2013-03-23 07:28:00,
2013-03-23 00:33:00,47.8,45.0,29.96,SW,236,0.0,-999.0,90,0.00,,,0.00,0.24,,2013-03-23 07:33:00,
2013-03-23 00:38:00,47.4,44.8,29.96,SW,236,0.0,-999.0,91,0.00,,,0.00,0.73,,2013-03-23 07:38:00,
2013-03-23 00:43:00,48.0,45.7,29.95,SW,236,0.0,-999.0,91,0.00,,,0.00,0.67,,2013-03-23 07:43:00,
2013-03-23 00:48:00,48.0,45.9,29.94,SW,236,0.0,-999.0,92,0.00,,,0.00,0.00,,2013-03-23 07:48:00,
2013-03-23 00:53:00,48.0,45.7,29.96,SW,236,0.0,-999.0,92,0.00,,,0.00,0.98,,2013-03-23 07:53:00,
2013-03-23 00:58:00,47.1,44.8,29.95,SW,236,0.0,-999.0,92,0.00,,,0.00,1.47,,2013-03-23 07:58:00,
2013-03-23 01:03:00,48.6,46.9,29.96,SW,236,0.0,-999.0,94,0.00,,,0.00,0.49,,2013-03-23 08:03:00,
2013-03-23 01:08:00,48.7,46.0,29.95,SW,236,0.0,-999.0,90,0.00,,,0.00,0.73,,2013-03-23 08:08:00,
2013-03-23 01:13:00,48.1,44.1,29.96,WSW,246,0.0,-999.0,86,0.00,,,0.00,0.00,,2013-03-23 08:13:00,
2013-03-23 01:18:00,48.2,44.2,29.94,WSW,246,0.0,-999.0,86,0.00,,,0.00,0.00,,2013-03-23 08:18:00,
2013-03-23 01:23:00,48.3,44.3,29.95,WSW,246,0.0,-999.0,86,0.00,,,0.00,0.73,,2013-03-23 08:23:00,
2013-03-23 01:28:00,48.9,45.4,29.96,WSW,246,0.0,-999.0,88,0.00,,,0.00,0.31,,2013-03-23 08:28:00,
2013-03-23 01:33:00,49.4,44.2,29.96,WSW,246,0.0,-999.0,82,0.00,,,0.00,0.00,,2013-03-23 08:33:00,
2013-03-23 01:38:00,49.2,43.9,29.94,WSW,246,0.0,-999.0,82,0.00,,,0.00,0.00,,2013-03-23 08:38:00,
2013-03-23 01:43:00,49.1,43.0,29.94,WSW,246,0.0,-999.0,79,0.00,,,0.00,0.00,,2013-03-23 08:43:00,
2013-03-23 01:53:00,47.6,42.5,29.95,WSW,246,0.0,-999.0,82,0.00,,,0.00,0.49,,2013-03-23 08:53:00,
2013-03-23 01:58:00,46.7,42.2,29.94,WSW,246,0.0,-999.0,84,0.00,,,0.00,0.31,,2013-03-23 08:58:00,
2013-03-23 02:03:00,48.5,45.1,29.96,WSW,246,0.0,-999.0,88,0.00,,,0.00,0.00,,2013-03-23 09:03:00,
2013-03-23 02:08:00,48.2,43.5,29.97,WSW,246,0.0,-999.0,84,0.00,,,0.00,0.06,,2013-03-23 09:08:00,
2013-03-23 02:13:00,48.5,43.4,29.95,WSW,245,0.0,-999.0,83,0.00,,,0.00,0.12,,2013-03-23 09:13:00,
2013-03-23 02:18:00,48.7,43.5,29.95,WSW,246,0.0,-999.0,82,0.00,,,0.00,0.00,,2013-03-23 09:18:00,
2013-03-23 02:23:00,48.7,43.5,29.97,WSW,246,0.0,-999.0,82,0.00,,,0.00,0.43,,2013-03-23 09:23:00,
2013-03-23 02:28:00,49.2,43.7,29.96,WSW,246,0.0,-999.0,81,0.00,,,0.00,0.00,,2013-03-23 09:28:00,
2013-03-23 02:33:00,48.6,42.6,29.95,WSW,246,0.0,-999.0,79,0.00,,,0.00,0.00,,2013-03-23 09:33:00,
2013-03-23 02:38:00,48.8,43.6,29.96,WSW,246,0.0,-999.0,82,0.00,,,0.00,0.00,,2013-03-23 09:38:00,
2013-03-23 02:43:00,49.3,45.0,29.96,WSW,246,0.0,-999.0,85,0.00,,,0.00,0.00,,2013-03-23 09:43:00,
2013-03-23 02:48:00,48.9,44.0,29.95,WSW,246,0.0,-999.0,83,0.00,,,0.00,1.22,,2013-03-23 09:48:00,
2013-03-23 02:53:00,48.8,43.6,29.94,WSW,246,0.0,-999.0,82,0.00,,,0.00,1.34,,2013-03-23 09:53:00,
2013-03-23 02:58:00,48.4,43.7,29.97,WSW,246,0.0,-999.0,84,0.00,,,0.00,0.06,,2013-03-23 09:58:00,
2013-03-23 03:03:00,48.5,43.9,29.96,WSW,246,0.0,-999.0,84,0.00,,,0.00,0.00,,2013-03-23 10:03:00,
2013-03-23 03:08:00,48.4,43.4,29.94,WSW,246,0.0,-999.0,83,0.00,,,0.00,0.00,,2013-03-23 10:08:00,
2013-03-23 03:13:00,48.9,44.0,29.95,WSW,246,0.0,-999.0,83,0.00,,,0.00,0.00,,2013-03-23 10:13:00,
2013-03-23 03:18:00,48.3,43.2,29.95,WSW,246,0.0,-999.0,82,0.00,,,0.00,0.00,,2013-03-23 10:18:00,
2013-03-23 03:23:00,49.1,44.3,29.95,WSW,246,0.0,-999.0,84,0.00,,,0.00,0.73,,2013-03-23 10:23:00,
2013-03-23 03:28:00,49.0,44.1,29.94,WSW,246,0.0,-999.0,83,0.00,,,0.00,0.73,,2013-03-23 10:28:00,
2013-03-23 03:33:00,48.6,43.5,29.96,WSW,246,0.0,-999.0,82,0.00,,,0.00,0.67,,2013-03-23 10:33:00,
2013-03-23 03:38:00,48.2,43.2,29.95,WSW,246,0.0,-999.0,83,0.00,,,0.00,0.73,,2013-03-23 10:38:00,
2013-03-23 03:43:00,48.3,43.8,29.95,NW,317,0.0,-999.0,84,0.00,,,0.00,0.49,,2013-03-23 10:43:00,
2013-03-23 03:48:00,48.0,43.7,29.95,NW,317,0.0,-999.0,85,0.00,,,0.00,0.98,,2013-03-23 10:48:00,
2013-03-23 03:53:00,47.9,43.7,29.96,NW,317,0.0,-999.0,85,0.00,,,0.00,0.00,,2013-03-23 10:53:00,
2013-03-23 03:58:00,48.0,44.3,29.96,NW,317,0.0,-999.0,87,0.00,,,0.00,0.00,,2013-03-23 10:58:00,
2013-03-23 04:03:00,47.8,44.4,29.93,NW,317,0.0,-999.0,88,0.00,,,0.00,0.49,,2013-03-23 11:03:00,
2013-03-23 04:08:00,47.4,44.2,29.95,NW,317,0.0,-999.0,88,0.00,,,0.00,0.24,,2013-03-23 11:08:00,
2013-03-23 04:13:00,48.0,44.8,29.95,NW,317,0.0,-999.0,88,0.00,,,0.00,0.00,,2013-03-23 11:13:00,
2013-03-23 04:18:00,48.3,44.8,29.95,NW,317,0.0,-999.0,88,0.00,,,0.00,0.00,,2013-03-23 11:18:00,
2013-03-23 04:23:00,48.1,44.3,29.94,WNW,303,0.0,-999.0,86,0.00,,,0.00,0.00,,2013-03-23 11:23:00,
2013-03-23 04:28:00,48.2,44.5,29.94,WNW,303,0.0,-999.0,87,0.00,,,0.00,0.49,,2013-03-23 11:28:00,
2013-03-23 04:33:00,47.8,44.3,29.95,NW,316,2.8,-999.0,88,0.00,,,0.00,1.10,,2013-03-23 11:33:00,
2013-03-23 04:38:00,47.7,44.4,29.95,NW,317,0.0,-999.0,88,0.00,,,0.00,0.00,,2013-03-23 11:38:00,
2013-03-23 04:43:00,47.8,44.8,29.94,NW,319,0.0,-999.0,89,0.00,,,0.00,0.73,,2013-03-23 11:43:00,
2013-03-23 04:48:00,48.2,45.2,29.94,WNW,297,1.3,-999.0,89,0.00,,,0.00,0.00,,2013-03-23 11:48:00,
2013-03-23 04:53:00,48.2,44.4,29.96,WNW,287,0.0,-999.0,87,0.00,,,0.00,0.98,,2013-03-23 11:53:00,
2013-03-23 04:58:00,48.0,43.7,29.94,WNW,287,0.0,-999.0,85,0.00,,,0.00,0.37,,2013-03-23 11:58:00,
2013-03-23 05:03:00,47.3,43.1,29.93,SW,214,0.0,-999.0,85,0.00,,,0.00,0.00,,2013-03-23 12:03:00,
2013-03-23 05:08:00,46.8,43.3,29.95,WSW,253,0.0,-999.0,88,0.00,,,0.00,0.24,,2013-03-23 12:08:00,
2013-03-23 05:13:00,46.2,43.1,29.95,WSW,253,0.0,-999.0,89,0.00,,,0.00,0.00,,2013-03-23 12:13:00,
2013-03-23 05:23:00,46.7,44.0,29.95,WSW,253,0.0,-999.0,90,0.00,,,0.00,0.00,,2013-03-23 12:23:00,
2013-03-23 05:28:00,46.5,44.3,29.96,SW,226,0.0,-999.0,92,0.00,,,0.00,0.00,,2013-03-23 12:28:00,
2013-03-23 05:33:00,46.0,43.6,29.95,SW,227,0.0,-999.0,91,0.00,,,0.00,0.00,,2013-03-23 12:33:00,
2013-03-23 05:38:00,46.8,45.0,29.95,SW,227,0.0,-999.0,93,0.00,,,0.00,0.73,,2013-03-23 12:38:00,
2013-03-23 05:43:00,47.0,44.7,29.96,SW,227,0.0,-999.0,92,0.00,,,0.00,0.00,,2013-03-23 12:43:00,
2013-03-23 05:48:00,46.8,43.4,29.96,SW,227,0.0,-999.0,88,0.00,,,0.00,0.00,,2013-03-23 12:48:00,
2013-03-23 05:53:00,47.2,43.5,29.94,SW,227,0.0,-999.0,87,0.00,,,0.00,1.22,,2013-03-23 12:53:00,
2013-03-23 05:58:00,47.2,43.3,29.96,SW,227,0.0,-999.0,87,0.00,,,0.00,0.00,,2013-03-23 12:58:00,
2013-03-23 06:03:00,47.1,43.8,29.97,WNW,303,0.0,-999.0,88,0.00,,,0.00,0.98,,2013-03-23 13:03:00,
2013-03-23 06:08:00,47.5,44.7,29.97,NNW,346,0.0,-999.0,90,0.00,,,0.00,1.71,,2013-03-23 13:08:00,
2013-03-23 06:13:00,46.1,43.5,29.96,NNW,346,0.0,-999.0,91,0.00,,,0.00,0.00,,2013-03-23 13:13:00,
2013-03-23 06:18:00,47.1,45.6,29.96,NNW,346,0.0,-999.0,95,0.00,,,0.00,1.10,,2013-03-23 13:18:00,
2013-03-23 06:23:00,47.4,46.2,29.96,NNW,346,0.0,-999.0,96,0.00,,,0.00,0.98,,2013-03-23 13:23:00,
2013-03-23 06:28:00,46.6,45.2,29.96,NE,45,0.0,-999.0,95,0.00,,,0.00,0.18,,2013-03-23 13:28:00,
2013-03-23 06:33:00,47.5,46.3,29.96,ENE,74,0.0,-999.0,95,0.00,,,0.00,1.71,,2013-03-23 13:33:00,
2013-03-23 06:38:00,47.9,45.3,29.96,ENE,74,0.0,-999.0,91,0.00,,,0.00,0.73,,2013-03-23 13:38:00,
2013-03-23 06:43:00,48.0,44.6,29.96,ENE,57,0.0,-999.0,88,0.00,,,0.00,0.43,,2013-03-23 13:43:00,
2013-03-23 06:48:00,48.1,43.7,29.95,ENE,57,0.0,-999.0,85,0.00,,,0.00,0.31,,2013-03-23 13:48:00,
2013-03-23 06:53:00,48.2,42.8,29.96,NE,41,0.0,-999.0,82,0.00,,,0.00,1.22,,2013-03-23 13:53:00,
2013-03-23 06:58:00,48.2,42.2,29.97,NW,325,0.0,-999.0,80,0.00,,,0.00,0.55,,2013-03-23 13:58:00,
2013-03-23 07:03:00,48.5,41.9,29.96,NNW,348,0.0,-999.0,78,0.00,,,0.00,3.42,,2013-03-23 14:03:00,
2013-03-23 07:08:00,47.9,40.5,29.97,ENE,71,0.0,-999.0,75,0.00,,,0.00,3.91,,2013-03-23 14:08:00,
2013-03-23 07:13:00,48.5,40.8,29.97,NNW,327,0.0,-999.0,74,0.00,,,0.00,6.11,,2013-03-23 14:13:00,
2013-03-23 07:18:00,48.3,40.8,29.98,NNW,330,0.0,-999.0,75,0.00,,,0.00,13.80,,2013-03-23 14:18:00,
2013-03-23 07:23:00,48.7,41.5,29.98,NNW,335,0.0,-999.0,76,0.00,,,0.00,25.58,,2013-03-23 14:23:00,
2013-03-23 07:33:00,49.2,41.0,30.00,NNE,20,3.4,-999.0,73,0.00,,,0.00,45.60,,2013-03-23 14:33:00,
2013-03-23 07:38:00,49.5,40.8,29.99,NNW,332,4.0,-999.0,72,0.00,,,0.00,55.31,,2013-03-23 14:38:00,
2013-03-23 07:43:00,49.7,40.5,29.98,NNW,337,1.1,-999.0,70,0.00,,,0.00,68.44,,2013-03-23 14:43:00,
2013-03-23 07:48:00,50.3,40.4,29.98,NW,325,0.0,-999.0,69,0.00,,,0.00,73.20,,2013-03-23 14:48:00,
2013-03-23 07:53:00,51.3,40.7,30.00,NW,325,0.0,-999.0,67,0.00,,,0.00,95.24,,2013-03-23 14:53:00,
2013-03-23 07:58:00,52.2,41.8,29.99,NW,325,0.0,-999.0,67,0.00,,,0.00,108.91,,2013-03-23 14:58:00,
2013-03-23 08:03:00,52.0,39.6,29.99,NW,325,0.0,-999.0,62,0.00,,,0.00,121.79,,2013-03-23 15:03:00,
2013-03-23 08:08:00,51.2,38.1,29.99,NW,325,0.0,-999.0,61,0.00,,,0.00,134.37,,2013-03-23 15:08:00,
2013-03-23 08:13:00,51.2,35.6,29.99,NNW,335,2.2,-999.0,55,0.00,,,0.00,149.76,,2013-03-23 15:13:00,
2013-03-23 08:18:00,51.5,34.5,29.99,NNW,327,1.0,-999.0,52,0.00,,,0.00,161.84,,2013-03-23 15:18:00,
2013-03-23 08:23:00,51.5,33.6,30.00,NW,321,0.0,-999.0,50,0.00,,,0.00,177.59,,2013-03-23 15:23:00,
2013-03-23 08:28:00,51.6,32.9,30.01,NNW,336,3.4,-999.0,49,0.00,,,0.00,192.00,,2013-03-23 15:28:00,
2013-03-23 08:33:00,51.8,33.1,30.00,NW,324,2.7,-999.0,49,0.00,,,0.00,207.33,,2013-03-23 15:33:00,
2013-03-23 08:38:00,52.0,32.6,30.00,NNW,331,4.4,-999.0,47,0.00,,,0.00,223.50,,2013-03-23 15:38:00,
2013-03-23 08:43:00,53.3,33.0,30.01,WNW,286,1.6,-999.0,46,0.00,,,0.00,236.14,,2013-03-23 15:43:00,
2013-03-23 08:48:00,52.8,31.1,30.01,NNW,335,4.5,-999.0,43,0.00,,,0.00,253.11,,2013-03-23 15:48:00,
2013-03-23 08:53:00,54.8,32.6,30.01,NW,323,0.0,-999.0,43,0.00,,,0.00,267.28,,2013-03-23 15:53:00,
2013-03-23 08:58:00,55.2,31.7,30.00,NNE,20,2.3,-999.0,41,0.00,,,0.00,280.59,,2013-03-23 15:58:00,
2013-03-23 09:03:00,55.9,31.6,30.00,NNE,26,1.6,-999.0,39,0.00,,,0.00,298.17,,2013-03-23 16:03:00,
2013-03-23 09:08:00,54.8,29.0,30.00,North,3,3.9,-999.0,37,0.00,,,0.00,305.01,,2013-03-23 16:08:00,
2013-03-23 09:13:00,54.8,28.9,29.99,North,9,4.0,-999.0,37,0.00,,,0.00,326.74,,2013-03-23 16:13:00,
2013-03-23 09:18:00,55.2,28.8,29.99,NNW,339,2.8,-999.0,36,0.00,,,0.00,342.19,,2013-03-23 16:18:00,
2013-03-23 09:23:00,54.1,29.5,30.00,NNW,335,2.5,-999.0,39,0.00,,,0.00,361.11,,2013-03-23 16:23:00,
2013-03-23 09:28:00,53.4,28.7,29.99,NNE,12,3.7,-999.0,38,0.00,,,0.00,376.80,,2013-03-23 16:28:00,
2013-03-23 09:33:00,56.2,31.8,29.99,WSW,242,1.6,-999.0,39,0.00,,,0.00,398.78,,2013-03-23 16:33:00,
2013-03-23 09:38:00,55.8,29.5,29.98,WNW,298,1.1,-999.0,36,0.00,,,0.00,374.73,,2013-03-23 16:38:00,
2013-03-23 09:43:00,54.9,27.0,29.99,NNE,33,4.5,-999.0,34,0.00,,,0.00,430.04,,2013-03-23 16:43:00,
2013-03-23 09:48:00,55.4,26.9,29.98,NNW,343,2.7,-999.0,33,0.00,,,0.00,404.95,,2013-03-23 16:48:00,
2013-03-23 09:53:00,55.9,27.2,29.99,ENE,61,5.2,-999.0,33,0.00,,,0.00,390.29,,2013-03-23 16:53:00,
2013-03-23 09:58:00,55.6,27.2,29.98,NE,38,3.9,-999.0,33,0.00,,,0.00,406.17,,2013-03-23 16:58:00,
2013-03-23 10:03:00,57.8,28.0,29.99,WNW,284,4.7,-999.0,32,0.00,,,0.00,442.49,,2013-03-23 17:03:00,
2013-03-23 10:08:00,56.5,28.2,29.98,NE,36,3.4,-999.0,34,0.00,,,0.00,473.02,,2013-03-23 17:08:00,
2013-03-23 10:13:00,57.8,28.6,29.98,NNE,24,1.1,-999.0,32,0.00,,,0.00,485.53,,2013-03-23 17:13:00,
2013-03-23 10:18:00,56.2,28.0,29.99,North,5,6.9,-999.0,34,0.00,,,0.00,495.85,,2013-03-23 17:18:00,
2013-03-23 10:23:00,56.6,27.5,29.99,NW,320,3.9,-999.0,32,0.00,,,0.00,470.82,,2013-03-23 17:23:00,
2013-03-23 10:28:00,57.7,26.6,29.99,WNW,294,2.5,-999.0,30,0.00,,,0.00,508.49,,2013-03-23 17:28:00,
2013-03-23 10:33:00,54.8,25.0,29.98,NNW,341,4.7,-999.0,31,0.00,,,0.00,530.22,,2013-03-23 17:33:00,
2013-03-23 10:38:00,56.8,25.9,29.99,North,350,4.2,-999.0,30,0.00,,,0.00,520.02,,2013-03-23 17:38:00,
2013-03-23 10:43:00,56.4,24.2,29.99,NNW,330,4.7,-999.0,29,0.00,,,0.00,514.47,,2013-03-23 17:43:00,
2013-03-23 10:48:00,59.2,27.8,29.98,North,9,0.0,-999.0,30,0.00,,,0.00,560.26,,2013-03-23 17:48:00,
2013-03-23 10:53:00,60.4,26.2,29.96,WSW,257,0.0,-999.0,27,0.00,,,0.00,586.63,,2013-03-23 17:53:00,
2013-03-23 10:58:00,57.3,18.2,29.99,NNE,27,3.5,-999.0,21,0.00,,,0.00,581.50,,2013-03-23 17:58:00,
2013-03-23 11:03:00,60.0,19.5,29.98,North,2,0.0,-999.0,21,0.00,,,0.00,575.58,,2013-03-23 18:03:00,
2013-03-23 11:08:00,58.1,15.2,29.97,NNW,333,2.7,-999.0,18,0.00,,,0.00,581.99,,2013-03-23 18:08:00,
2013-03-23 11:13:00,58.8,17.2,29.98,North,349,3.0,-999.0,19,0.00,,,0.00,586.39,,2013-03-23 18:13:00,
2013-03-23 11:18:00,59.0,16.0,29.99,NNW,337,2.3,-999.0,18,0.00,,,0.00,603.97,,2013-03-23 18:18:00,
2013-03-23 11:23:00,60.5,18.3,29.96,North,6,1.6,-999.0,19,0.00,,,0.00,649.39,,2013-03-23 18:23:00,
2013-03-23 11:28:00,61.2,21.4,29.96,North,349,0.0,-999.0,21,0.00,,,0.00,662.33,,2013-03-23 18:28:00,
2013-03-23 11:33:00,58.1,10.1,29.98,NNW,330,4.2,-999.0,15,0.00,,,0.00,642.00,,2013-03-23 18:33:00,
2013-03-23 11:38:00,57.6,13.2,29.98,NE,38,3.2,-999.0,17,0.00,,,0.00,672.47,,2013-03-23 18:38:00,
2013-03-23 11:43:00,59.3,16.6,29.96,NW,319,5.4,-999.0,19,0.00,,,0.00,683.76,,2013-03-23 18:43:00,
2013-03-23 11:48:00,58.8,16.2,29.97,NNW,330,5.4,-999.0,19,0.00,,,0.00,700.49,,2013-03-23 18:48:00,
2013-03-23 11:53:00,60.3,16.4,29.98,NNE,32,5.2,-999.0,18,0.00,,,0.00,609.83,,2013-03-23 18:53:00,
2013-03-23 11:58:00,61.4,13.6,29.97,NNE,24,1.8,-999.0,15,0.00,,,0.00,593.16,,2013-03-23 18:58:00,
2013-03-23 12:03:00,58.0,13.4,29.97,NW,315,6.6,-999.0,17,0.00,,,0.00,674.05,,2013-03-23 19:03:00,
2013-03-23 12:08:00,60.6,15.3,29.98,NNW,329,2.2,-999.0,17,0.00,,,0.00,669.84,,2013-03-23 19:08:00,
2013-03-23 12:13:00,58.8,13.2,29.97,West,266,5.6,-999.0,16,0.00,,,0.00,686.81,,2013-03-23 19:13:00,
2013-03-23 12:18:00,60.0,13.1,29.97,North,1,3.9,-999.0,16,0.00,,,0.00,716.61,,2013-03-23 19:18:00,
2013-03-23 12:23:00,66.2,17.2,29.96,West,263,3.5,-999.0,15,0.00,,,0.00,691.58,,2013-03-23 19:23:00,
2013-03-23 12:28:00,60.8,15.1,29.97,NW,313,1.6,-999.0,16,0.00,,,0.00,660.38,,2013-03-23 19:28:00,
2013-03-23 12:33:00,61.4,14.0,29.97,SW,231,3.2,-999.0,15,0.00,,,0.00,637.24,,2013-03-23 19:33:00,
2013-03-23 12:38:00,61.9,15.3,29.96,NW,325,4.9,-999.0,16,0.00,,,0.00,690.29,,2013-03-23 19:38:00,
2013-03-23 12:43:00,62.3,13.4,29.96,NW,320,1.8,-999.0,14,0.00,,,0.00,661.05,,2013-03-23 19:43:00,
2013-03-23 12:48:00,62.3,12.1,29.96,WNW,287,1.8,-999.0,14,0.00,,,0.00,673.08,,2013-03-23 19:48:00,
2013-03-23 12:53:00,61.5,13.7,29.95,NW,310,4.9,-999.0,15,0.00,,,0.00,716.54,,2013-03-23 19:53:00,
2013-03-23 12:58:00,60.6,11.5,29.95,NW,322,4.0,-999.0,14,0.00,,,0.00,701.10,,2013-03-23 19:58:00,
2013-03-23 13:03:00,63.8,16.6,29.95,West,260,2.0,-999.0,16,0.00,,,0.00,720.64,,2013-03-23 20:03:00,
2013-03-23 13:08:00,62.1,11.8,29.95,North,349,4.2,-999.0,14,0.00,,,0.00,725.89,,2013-03-23 20:08:00,
2013-03-23 13:13:00,63.2,12.7,29.95,NNW,339,5.2,-999.0,14,0.00,,,0.00,731.87,,2013-03-23 20:13:00,
2013-03-23 13:18:00,63.8,14.6,29.95,WSW,244,0.0,-999.0,15,0.00,,,0.00,737.67,,2013-03-23 20:18:00,
2013-03-23 13:23:00,63.0,13.8,29.94,NNW,331,3.7,-999.0,14,0.00,,,0.00,737.79,,2013-03-23 20:23:00,
2013-03-23 13:28:00,62.5,12.9,29.94,NNW,347,3.7,-999.0,14,0.00,,,0.00,741.15,,2013-03-23 20:28:00,
2013-03-23 13:33:00,66.1,16.0,29.93,SSW,210,2.2,-999.0,14,0.00,,,0.00,743.90,,2013-03-23 20:33:00,
2013-03-23 13:38:00,65.2,16.4,29.93,SSE,166,1.6,-999.0,15,0.00,,,0.00,708.18,,2013-03-23 20:38:00,
2013-03-23 13:43:00,65.6,12.5,29.93,WSW,249,0.0,-999.0,12,0.00,,,0.00,704.09,,2013-03-23 20:43:00,
2013-03-23 13:48:00,64.4,14.6,29.94,WNW,303,2.0,-999.0,14,0.00,,,0.00,678.14,,2013-03-23 20:48:00,
2013-03-23 13:53:00,65.2,12.8,29.93,NW,309,3.0,-999.0,13,0.00,,,0.00,636.63,,2013-03-23 20:53:00,
2013-03-23 13:58:00,68.0,18.8,29.93,SE,136,0.0,-999.0,15,0.00,,,0.00,677.66,,2013-03-23 20:58:00,
2013-03-23 14:08:00,58.3,22.5,29.93,South,178,7.3,-999.0,25,0.00,,,0.00,571.18,,2013-03-23 21:08:00,
2013-03-23 14:13:00,61.8,29.7,29.93,NW,310,4.9,-999.0,30,0.00,,,0.00,571.67,,2013-03-23 21:13:00,
2013-03-23 14:18:00,58.5,28.1,29.94,WSW,237,5.1,-999.0,31,0.00,,,0.00,479.12,,2013-03-23 21:18:00,
2013-03-23 14:23:00,60.5,31.7,29.94,NW,323,3.2,-999.0,34,0.00,,,0.00,459.83,,2013-03-23 21:23:00,
2013-03-23 14:28:00,57.7,31.0,29.94,WSW,252,7.8,-999.0,36,0.00,,,0.00,465.69,,2013-03-23 21:28:00,
2013-03-23 14:33:00,56.0,29.8,29.94,SW,230,9.3,-999.0,36,0.00,,,0.00,466.85,,2013-03-23 21:33:00,
2013-03-23 14:38:00,58.0,34.1,29.94,West,277,7.6,-999.0,41,0.00,,,0.00,484.25,,2013-03-23 21:38:00,
2013-03-23 14:43:00,55.8,31.0,29.93,West,275,6.1,-999.0,39,0.00,,,0.00,422.71,,2013-03-23 21:43:00,
2013-03-23 14:48:00,56.0,32.5,29.93,SW,226,8.8,-999.0,41,0.00,,,0.00,436.63,,2013-03-23 21:48:00,
2013-03-23 14:53:00,57.0,34.5,29.93,West,264,4.2,-999.0,42,0.00,,,0.00,433.03,,2013-03-23 21:53:00,
2013-03-23 14:58:00,56.7,34.7,29.93,WSW,246,4.7,-999.0,43,0.00,,,0.00,358.73,,2013-03-23 21:58:00,
2013-03-23 15:03:00,54.9,33.0,29.93,WSW,247,9.5,-999.0,43,0.00,,,0.00,318.99,,2013-03-23 22:03:00,
2013-03-23 15:08:00,54.3,35.5,29.93,WSW,240,6.9,-999.0,49,0.00,,,0.00,308.79,,2013-03-23 22:08:00,
2013-03-23 15:13:00,54.9,37.7,29.92,SW,236,4.7,-999.0,52,0.00,,,0.00,322.59,,2013-03-23 22:13:00,
2013-03-23 15:18:00,54.8,37.4,29.93,SSW,212,5.8,-999.0,52,0.00,,,0.00,393.90,,2013-03-23 22:18:00,
2013-03-23 15:23:00,54.5,36.2,29.92,SW,227,9.0,-999.0,50,0.00,,,0.00,359.52,,2013-03-23 22:23:00,
2013-03-23 15:28:00,54.5,36.4,29.92,SW,234,9.7,-999.0,50,0.00,,,0.00,396.58,,2013-03-23 22:28:00,
2013-03-23 15:33:00,53.8,32.7,29.92,WSW,247,7.8,-999.0,44,0.00,,,0.00,521.80,,2013-03-23 22:33:00,
2013-03-23 15:38:00,55.2,33.5,29.92,WSW,246,9.5,-999.0,44,0.00,,,0.00,464.77,,2013-03-23 22:38:00,
2013-03-23 15:43:00,55.5,31.9,29.92,SSW,199,9.3,-999.0,40,0.00,,,0.00,514.47,,2013-03-23 22:43:00,
2013-03-23 15:48:00,55.7,32.5,29.92,SW,218,10.5,-999.0,41,0.00,,,0.00,466.42,,2013-03-23 22:48:00,
2013-03-23 15:53:00,56.8,33.1,29.93,SW,225,9.2,-999.0,40,0.00,,,0.00,482.91,,2013-03-23 22:53:00,
2013-03-23 15:58:00,55.3,32.0,29.91,South,181,10.7,-999.0,41,0.00,,,0.00,495.30,,2013-03-23 22:58:00,
2013-03-23 16:03:00,57.0,33.4,29.92,SSW,202,10.9,-999.0,41,0.00,,,0.00,484.07,,2013-03-23 23:03:00,
2013-03-23 16:08:00,56.7,32.4,29.92,SW,217,7.3,-999.0,40,0.00,,,0.00,477.78,,2013-03-23 23:08:00,
2013-03-23 16:13:00,57.4,33.2,29.91,WSW,252,5.9,-999.0,40,0.00,,,0.00,448.17,,2013-03-23 23:13:00,
2013-03-23 16:18:00,56.5,32.0,29.92,SW,227,12.9,-999.0,39,0.00,,,0.00,473.02,,2013-03-23 23:18:00,
2013-03-23 16:23:00,57.0,31.6,29.91,SSW,192,6.8,-999.0,38,0.00,,,0.00,459.16,,2013-03-23 23:23:00,
2013-03-23 16:28:00,57.4,30.9,29.93,SSW,205,9.5,-999.0,36,0.00,,,0.00,444.44,,2013-03-23 23:28:00,
2013-03-23 16:33:00,57.9,32.6,29.91,SW,218,5.1,-999.0,38,0.00,,,0.00,429.61,,2013-03-23 23:33:00,
2013-03-23 16:38:00,59.2,32.6,29.91,WSW,254,5.1,-999.0,36,0.00,,,0.00,417.89,,2013-03-23 23:38:00,
2013-03-23 16:43:00,58.6,31.8,29.91,SSW,198,6.3,-999.0,36,0.00,,,0.00,408.73,,2013-03-23 23:43:00,
2013-03-23 16:48:00,58.7,31.0,29.91,SSE,150,7.3,-999.0,35,0.00,,,0.00,393.59,,2013-03-23 23:48:00,
2013-03-23 16:53:00,58.0,29.2,29.91,South,175,5.9,-999.0,33,0.00,,,0.00,379.00,,2013-03-23 23:53:00,
2013-03-23 16:58:00,57.8,29.1,29.91,SSW,206,8.5,-999.0,33,0.00,,,0.00,360.68,,2013-03-23 23:58:00,
2013-03-23 17:08:00,57.3,30.0,29.91,SW,221,10.7,-999.0,35,0.00,,,0.00,345.54,,2013-03-24 00:08:00,
2013-03-23 17:13:00,55.7,29.9,29.91,WSW,247,8.7,-999.0,37,0.00,,,0.00,348.23,,2013-03-24 00:13:00,
2013-03-23 17:18:00,55.6,31.9,29.91,SSW,209,9.8,-999.0,40,0.00,,,0.00,341.15,,2013-03-24 00:18:00,
2013-03-23 17:23:00,55.7,34.9,29.91,SW,222,7.4,-999.0,45,0.00,,,0.00,324.79,,2013-03-24 00:23:00,
2013-03-23 17:28:00,53.3,37.4,29.91,WSW,258,7.3,-999.0,55,0.00,,,0.00,228.63,,2013-03-24 00:28:00,
2013-03-23 17:33:00,53.9,39.8,29.91,SW,222,6.8,-999.0,59,0.00,,,0.00,208.79,,2013-03-24 00:33:00,
2013-03-23 17:38:00,53.0,39.2,29.91,WSW,239,10.2,-999.0,59,0.00,,,0.00,236.20,,2013-03-24 00:38:00,
2013-03-23 17:43:00,53.0,39.6,29.92,SW,225,10.5,-999.0,60,0.00,,,0.00,236.87,,2013-03-24 00:43:00,
2013-03-23 17:48:00,53.7,40.1,29.91,WSW,237,9.0,-999.0,60,0.00,,,0.00,217.34,,2013-03-24 00:48:00,
2013-03-23 17:53:00,53.5,40.2,29.91,WSW,249,14.3,-999.0,61,0.00,,,0.00,194.02,,2013-03-24 00:53:00,
2013-03-23 18:03:00,52.5,40.6,29.91,SW,220,12.4,-999.0,64,0.00,,,0.00,171.31,,2013-03-24 01:03:00,
2013-03-23 18:08:00,52.8,41.2,29.92,WSW,247,5.4,-999.0,64,0.00,,,0.00,158.06,,2013-03-24 01:08:00,
2013-03-23 18:13:00,52.2,40.6,29.91,South,183,14.3,-999.0,64,0.00,,,0.00,141.82,,2013-03-24 01:13:00,
2013-03-23 18:18:00,51.9,41.1,29.91,South,188,10.2,-999.0,67,0.00,,,0.00,129.61,,2013-03-24 01:18:00,
2013-03-23 18:23:00,51.8,41.4,29.91,SW,216,11.6,-999.0,67,0.00,,,0.00,118.44,,2013-03-24 01:23:00,
2013-03-23 18:28:00,51.3,41.3,29.91,SSW,202,12.8,-999.0,69,0.00,,,0.00,105.98,,2013-03-24 01:28:00,
2013-03-23 18:33:00,51.5,41.6,29.92,SSW,192,7.6,-999.0,69,0.00,,,0.00,95.60,,2013-03-24 01:33:00,
2013-03-23 18:38:00,51.2,41.1,29.91,SW,220,11.7,-999.0,68,0.00,,,0.00,38.89,,2013-03-24 01:38:00,
2013-03-23 18:43:00,51.0,41.4,29.91,SW,221,11.4,-999.0,70,0.00,,,0.00,28.82,,2013-03-24 01:43:00,
2013-03-23 18:48:00,51.1,41.6,29.92,SW,227,9.3,-999.0,70,0.00,,,0.00,25.95,,2013-03-24 01:48:00,
2013-03-23 18:53:00,50.9,41.4,29.91,SW,224,14.3,-999.0,70,0.00,,,0.00,22.10,,2013-03-24 01:53:00,
2013-03-23 18:58:00,51.0,41.6,29.91,SSW,198,8.1,-999.0,70,0.00,,,0.00,20.94,,2013-03-24 01:58:00,
2013-03-23 19:03:00,50.9,41.3,29.91,WSW,248,5.6,-999.0,70,0.00,,,0.00,16.12,,2013-03-24 02:03:00,
2013-03-23 19:08:00,51.0,41.0,29.92,SW,229,7.1,-999.0,69,0.00,,,0.00,13.49,,2013-03-24 02:08:00,
2013-03-23 19:13:00,51.0,41.1,29.93,SSW,202,11.9,-999.0,69,0.00,,,0.00,9.83,,2013-03-24 02:13:00,
2013-03-23 19:18:00,51.1,41.4,29.92,SSW,208,8.0,-999.0,69,0.00,,,0.00,5.19,,2013-03-24 02:18:00,
2013-03-23 19:23:00,50.6,41.4,29.91,SW,227,12.4,-999.0,71,0.00,,,0.00,2.75,,2013-03-24 02:23:00,
2013-03-23 19:28:00,50.3,41.7,29.92,SW,222,8.1,-999.0,72,0.00,,,0.00,1.04,,2013-03-24 02:28:00,
2013-03-23 19:33:00,50.1,42.1,29.92,WSW,241,6.3,-999.0,74,0.00,,,0.00,2.08,,2013-03-24 02:33:00,
2013-03-23 19:38:00,49.6,42.1,29.91,SW,221,7.8,-999.0,75,0.00,,,0.00,0.55,,2013-03-24 02:38:00,
2013-03-23 19:43:00,49.5,42.5,29.91,WSW,240,9.0,-999.0,77,0.00,,,0.00,0.73,,2013-03-24 02:43:00,
2013-03-23 19:48:00,49.5,42.7,29.92,South,184,6.4,-999.0,77,0.00,,,0.00,0.98,,2013-03-24 02:48:00,
2013-03-23 19:53:00,49.4,42.7,29.92,SSW,212,6.3,-999.0,78,0.00,,,0.00,0.00,,2013-03-24 02:53:00,
2013-03-23 19:58:00,49.3,42.8,29.91,SE,144,6.9,-999.0,78,0.00,,,0.00,0.73,,2013-03-24 02:58:00,
2013-03-23 20:03:00,49.3,43.0,29.91,SSW,209,12.3,-999.0,79,0.00,,,0.00,0.00,,2013-03-24 03:03:00,
2013-03-23 20:08:00,49.3,43.2,29.91,SW,219,9.7,-999.0,79,0.00,,,0.00,0.00,,2013-03-24 03:08:00,
2013-03-23 20:13:00,49.2,43.1,29.92,SW,225,7.4,-999.0,79,0.00,,,0.00,0.00,,2013-03-24 03:13:00,
2013-03-23 20:18:00,49.2,43.2,29.91,SW,233,10.9,-999.0,80,0.00,,,0.00,0.00,,2013-03-24 03:18:00,
2013-03-23 20:23:00,49.2,43.2,29.93,SSW,201,6.9,-999.0,80,0.00,,,0.00,0.73,,2013-03-24 03:23:00,
2013-03-23 20:28:00,49.2,43.3,29.92,SSW,204,6.3,-999.0,80,0.00,,,0.00,0.00,,2013-03-24 03:28:00,
2013-03-23 20:33:00,49.0,43.5,29.92,SW,220,8.1,-999.0,81,0.00,,,0.00,0.00,,2013-03-24 03:33:00,
2013-03-23 20:38:00,49.1,43.7,29.92,SW,232,7.3,-999.0,82,0.00,,,0.00,0.00,,2013-03-24 03:38:00,
2013-03-23 20:43:00,48.9,43.8,29.94,SSW,212,8.1,-999.0,82,0.00,,,0.00,0.00,,2013-03-24 03:43:00,
2013-03-23 20:48:00,48.9,43.7,29.92,South,186,9.8,-999.0,82,0.00,,,0.00,0.00,,2013-03-24 03:48:00,
2013-03-23 20:53:00,48.9,43.5,29.93,South,175,6.1,-999.0,82,0.00,,,0.00,0.00,,2013-03-24 03:53:00,
2013-03-23 20:58:00,48.9,43.4,29.93,SW,230,6.6,-999.0,81,0.00,,,0.00,0.61,,2013-03-24 03:58:00,
2013-03-23 21:03:00,49.0,43.4,29.93,SSW,204,6.3,-999.0,81,0.00,,,0.00,0.00,,2013-03-24 04:03:00,
2013-03-23 21:08:00,48.8,43.4,29.93,SSW,192,6.8,-999.0,81,0.00,,,0.00,0.92,,2013-03-24 04:08:00,
2013-03-23 21:13:00,48.8,43.5,29.92,WSW,241,8.3,-999.0,82,0.00,,,0.00,0.24,,2013-03-24 04:13:00,
2013-03-23 21:18:00,48.7,43.5,29.93,WSW,258,6.3,-999.0,82,0.00,,,0.00,0.67,,2013-03-24 04:18:00,
2013-03-23 21:23:00,48.5,43.5,29.93,SSW,201,5.1,-999.0,83,0.00,,,0.00,0.73,,2013-03-24 04:23:00,
2013-03-23 21:28:00,48.4,43.4,29.93,SW,224,8.0,-999.0,83,0.00,,,0.00,0.00,,2013-03-24 04:28:00,
2013-03-23 21:33:00,48.5,43.4,29.93,WSW,237,2.5,-999.0,82,0.00,,,0.00,0.73,,2013-03-24 04:33:00,
2013-03-23 21:38:00,48.4,43.5,29.94,SW,223,6.8,-999.0,83,0.00,,,0.00,0.00,,2013-03-24 04:38:00,
2013-03-23 21:43:00,48.3,43.7,29.94,SW,229,5.6,-999.0,84,0.00,,,0.00,1.47,,2013-03-24 04:43:00,
2013-03-23 21:48:00,48.3,43.7,29.93,SSW,195,3.0,-999.0,84,0.00,,,0.00,0.00,,2013-03-24 04:48:00,
2013-03-23 21:53:00,48.2,43.7,29.94,SW,225,8.1,-999.0,84,0.00,,,0.00,0.49,,2013-03-24 04:53:00,
2013-03-23 21:58:00,48.2,43.8,29.95,South,175,3.0,-999.0,85,0.00,,,0.00,0.67,,2013-03-24 04:58:00,
2013-03-23 22:03:00,48.3,44.0,29.94,South,189,5.1,-999.0,85,0.00,,,0.00,0.00,,2013-03-24 05:03:00,
2013-03-23 22:08:00,48.2,44.0,29.93,SSW,212,6.3,-999.0,85,0.00,,,0.00,0.00,,2013-03-24 05:08:00,
2013-03-23 22:13:00,48.1,43.9,29.94,SSE,149,4.2,-999.0,85,0.00,,,0.00,0.73,,2013-03-24 05:13:00,
2013-03-23 22:18:00,48.3,44.3,29.95,WSW,237,5.6,-999.0,86,0.00,,,0.00,0.12,,2013-03-24 05:18:00,
2013-03-23 22:23:00,48.2,44.3,29.94,South,169,3.2,-999.0,86,0.00,,,0.00,0.31,,2013-03-24 05:23:00,
2013-03-23 22:28:00,48.2,44.3,29.94,SSE,159,3.2,-999.0,86,0.00,,,0.00,0.00,,2013-03-24 05:28:00,
2013-03-23 22:33:00,48.1,44.4,29.95,East,86,3.5,-999.0,87,0.00,,,0.00,0.73,,2013-03-24 05:33:00,
2013-03-23 22:38:00,48.1,44.4,29.95,South,173,4.0,-999.0,87,0.00,,,0.00,0.00,,2013-03-24 05:38:00,
2013-03-23 22:43:00,48.2,44.5,29.94,South,181,6.3,-999.0,87,0.00,,,0.00,0.73,,2013-03-24 05:43:00,
2013-03-23 22:48:00,48.0,44.4,29.95,South,190,3.0,-999.0,87,0.00,,,0.00,0.37,,2013-03-24 05:48:00,
2013-03-23 22:53:00,48.2,44.6,29.96,SSE,162,0.0,-999.0,87,0.00,,,0.00,0.00,,2013-03-24 05:53:00,
2013-03-23 22:58:00,48.0,44.5,29.95,South,186,6.4,-999.0,87,0.00,,,0.00,1.22,,2013-03-24 05:58:00,
2013-03-23 23:03:00,48.0,44.4,29.95,South,180,2.0,-999.0,87,0.00,,,0.00,0.00,,2013-03-24 06:03:00,
2013-03-23 23:08:00,48.0,44.5,29.96,South,185,5.1,-999.0,88,0.00,,,0.00,0.43,,2013-03-24 06:08:00,
2013-03-23 23:13:00,47.9,44.5,29.95,South,191,3.4,-999.0,88,0.00,,,0.00,0.24,,2013-03-24 06:13:00,
2013-03-23 23:18:00,47.9,44.5,29.94,NW,316,4.7,-999.0,88,0.00,,,0.00,0.00,,2013-03-24 06:18:00,
2013-03-23 23:23:00,47.8,44.2,29.94,SSW,210,5.4,-999.0,87,0.00,,,0.00,0.49,,2013-03-24 06:23:00,
2013-03-23 23:28:00,47.9,44.4,29.95,South,179,6.6,-999.0,87,0.00,,,0.00,0.00,,2013-03-24 06:28:00,
2013-03-23 23:33:00,47.9,44.5,29.96,SSW,197,4.0,-999.0,88,0.00,,,0.00,0.00,,2013-03-24 06:33:00,
2013-03-23 23:38:00,47.8,44.4,29.95,SSW,203,5.6,-999.0,88,0.00,,,0.00,0.31,,2013-03-24 06:38:00,
2013-03-23 23:43:00,47.8,44.6,29.94,West,266,4.0,-999.0,89,0.00,,,0.00,1.22,,2013-03-24 06:43:00,
2013-03-23 23:48:00,48.0,44.7,29.96,South,190,3.5,-999.0,88,0.00,,,0.00,0.00,,2013-03-24 06:48:00,
2013-03-23 23:53:00,47.8,44.5,29.94,SSW,202,1.5,-999.0,88,0.00,,,0.00,1.22,,2013-03-24 06:53:00,